STARLINK-1307, 45397

Orbit data source: Space-Track

STARLINK-1307, 45397 is a payload satellite owned by SpaceX/Seattle (US) in LEO that was launched on Wed, 18 Mar 2020 UTC via an FALCON 9 launch vehicle from the Air Force Eastern Test Range (AFETR). Payload-class satellites include a variety of spacecraft equipped with specific instruments for various scientific and technological missions. These include communications satellites like Starlink; space stations such as the ISS; scientific satellites like the Hubble; Earth observation satellites from companies like Planet Labs, Umbra, and HawkEye 360; GPS; miniature CubeSats for education and research; and military/defense satellites.

Loading next visibility...
Identifier
45397, 2020-019AP
Orbit
LEO
Country
Flag of USUS
Related business
Manufacturer
SpaceX/Seattle
Mission
Partially operational Commercial Communications
Bus & Motor
STARLINK, Unknown motor
Mass
260 kg wet, ~248 kg dry
Launch date (UTC)
2020-03-18 (7 years ago)
Launch vehicle
FALCON 9
Launch site
Air Force Eastern Test Range (AFETR)
Object type
Payload
Rocket body
Debris
Shape & HBR
Box + 1 Pan, 10.1 m
Radar Cross Section
13.562 m², Large (>1 m²)

Expand to show TLE details & history
Last TLE update: 10 hours ago

TLE from 10 hours ago
0 STARLINK-1307
1 45397U 20019AP  26267.24892451  .00039218  00000-0  40646-3 0  9994
2 45397  53.0471 247.5368 0003662  73.5817 286.5599 15.64309083360993
Epoch: 2026-09-24T05:58Z
TLE epoch observation values (Epoch: 2026-09-24T05:58:27.077Z)
Latitude
-0.00006°
Longitude
154.83552°
Altitude
375.423 km
Speed
7.686 km/s
True Right ascension
16h 30m 08s
True Declination
0° 00' 00"
Sunlit
Object was in daylight at epoch
Visualization orbit readout
Latitude
Unknown
Longitude
Unknown
Altitude
Unknown
Speed
Unknown
Apparent Right ascension
Unknown
Apparent Declination
Unknown
Sunlit
N/A
Visualization observer readout
Local Sidereal Time
08:50:28
Azimuth
Unknown
Elevation
Unknown
Doppler factor
Unknown
Orbital elements
Apogee altitude
377.978 km
Perigee altitude
373.032 km
Semi-major axis
6,753.642 km
Eccentricity
0.00037
Inclination
53.0471°
RAAN
247.5368°
Arg. of periapsis
73.5817°
True anomaly
286.51967°
Mean anomaly
286.5599°
Eccentric anomaly
286.53979°
Mean motion
3.91053 °/min
Orbital period
92.06 mins
BSTAR
0.00040646
Loading maneuver chart data...
Computing Atmospheric mass density...
Loading historical data...
Loading historical data...
Loading historical data...
Loading historical data...
Loading historical data...
Loading historical data...
Loading historical data...

Documentation

Showing up to 5 results
|